Regional Weather Roundup
Issued by NWS

Home | Current Version | Previous Version | Text Only | Print | Product List | Glossary Off
Versions: 1 2 3 4 5 6 7 8 9 10 11 12 13 14 15 16 17 18 19 20 21 22 23 24 25 26 27 28 29 30 31 32 33 34 35 36 37 38 39 40 41 42 43 44 45 46 47 48 49 50

000
ASUS43 KMKX 211521
RWRWI

WISCONSIN REGIONAL WEATHER ROUNDUP
NATIONAL WEATHER SERVICE MILWAUKEE/SULLIVAN WI
1000 AM CDT TUE AUG 21 2018

NOTE: "FAIR" INDICATES FEW OR NO CLOUDS BELOW 12,000 FEET WITH NO
SIGNIFICANT WEATHER AND/OR OBSTRUCTIONS TO VISIBILITY.

WIZ001-002-006>008-014>016-023>028-211600-
NORTHWEST WISCONSIN

CITY           SKY/WX    TMP DP  RH WIND       PRES   REMARKS
SUPERIOR ARPT  FAIR      63  55  75 CALM      30.10R
ASHLAND        FAIR      64  59  83 NW5       30.07F
HAYWARD        FAIR      63  57  81 VRB7      30.08S
SIREN          NOT AVBL
CUMBERLAND     FAIR      61  54  77 N9        30.08S
RICE LAKE      PTSUNNY   63  33  32 N10       30.09R
CHETEK         PTSUNNY   65  58  79 N8        30.07R
LADYSMITH      CLOUDY    64  56  74 MISG      30.07S
EAU CLAIRE     CLOUDY    64  59  83 N13       30.04R
MENOMONIE      CLOUDY    66  58  76 NW10G17   30.06S
NEW RICHMOND   FAIR      65  56  72 N9        30.09S
OSCEOLA        FAIR      64  58  82 N10       30.13R
$$

WIZ003>005-009-010-017-018-211600-
NORTH CENTRAL WISCONSIN

CITY           SKY/WX    TMP DP  RH WIND       PRES   REMARKS
MANITOWISH WTR CLOUDY    59  58  95 N10       30.05S
ARBOR VITAE    CLOUDY    59  57  92 N13       30.05R FOG
WOODRUFF       CLOUDY    59  57  92 N13       30.05R FOG
RHINELANDER    CLOUDY    63  57  81 N7        30.03R
EAGLE RIVER    CLOUDY    58  56  92 N13G21    30.03R
LAND O LAKES   CLOUDY    56  56  97 N13       30.06R FOG
PHILLIPS       PTSUNNY   64  57  78 N16       30.05R
TOMAHAWK       CLOUDY    60  56  84 N7G16     30.03S
MEDFORD        CLOUDY    61  57  86 N13       30.02S
MERRILL        CLOUDY    64  60  88 N10G17    30.01R
$$

WIZ029-030-035-036-043>047-211600-
CENTRAL WISCONSIN

CITY           SKY/WX    TMP DP  RH WIND       PRES   REMARKS
WAUSAU         CLOUDY    64  58  80 N10G21    29.98R
MOSINEE        CLOUDY    64  61  88 N10       29.99R
MARSHFIELD     CLOUDY    65  60  84 N9        29.99R
STEVENS POINT  CLOUDY    65  61  86 N9G17     29.98R
WAUPACA        CLOUDY    69  66  88 NW12      29.95R
WAUTOMA        CLOUDY    68  63  84 N9        29.95R
WISC RAPIDS    CLOUDY    68  59  73 N14       29.99R
CAMP DOUGLAS   CLOUDY    64  64 100 NW10      29.99R
$$

WIZ011>013-019>022-031-037>040-048>050-211600-
NORTHEAST WISCONSIN

CITY           SKY/WX    TMP DP  RH WIND       PRES   REMARKS
ANTIGO         CLOUDY    62  58  87 N12       29.99S
SHAWANO        CLOUDY    68  62  79 N14       29.94S
OCONTO         CLOUDY    66  61  85 N12       29.92R
STURGEON BAY   CLOUDY    66  63  88 N15G21    29.91R
GREEN BAY      CLOUDY    65  62  90 N9        29.92R
MANITOWOC      CLOUDY    68  65  90 N12       29.88S
APPLETON       CLOUDY    64  63  94 N17       29.92R
CLINTONVILLE   PTSUNNY   68  61  79 N6        29.94S
OSHKOSH        CLOUDY    67  63  87 N13       29.92R
$$

WIZ032>034-041-042-053>061-211600-
SOUTHWEST WISCONSIN

CITY           SKY/WX    TMP DP  RH WIND       PRES   REMARKS
LA CROSSE      CLOUDY    66  61  84 N12       30.01R
SPARTA         CLOUDY    60  58  94 NW9       30.02S
VIROQUA        CLOUDY    64  64 100 NW13      30.02R
BOSCOBEL       CLOUDY    72  63  73 VRB7      29.98R
PRAIRIE DU CHI CLOUDY    69  62  78 NW12      29.99R
PLATTEVILLE    CLOUDY    70  68  93 N14G20    29.97R
$$

WIZ056-057-062-063-064-067-068-211600-
SOUTH CENTRAL WISCONSIN

CITY           SKY/WX    TMP DP  RH WIND       PRES   REMARKS
REEDSBURG      CLOUDY    67  66  96 N10       29.97R
BARABOO/DELLS  CLOUDY    69  63  83 N9        29.97R
LONE ROCK      CLOUDY    71  66  84 N12       29.96R
MINERAL POINT  CLOUDY    70  68  94 N12G18    29.96R
MADISON        PTSUNNY   70  65  84 N16G24    29.92R
MIDDLETON      NOT AVBL
WATERTOWN      CLOUDY    68  67  96 N9G16     29.90R
MONROE         CLOUDY    68  63  84 N14       29.93R
JANESVILLE     CLOUDY    68  68 100 N9        29.89R
$$

WIZ051-052-058>065-066-070>072-211600-
SOUTHEAST WISCONSIN

CITY           SKY/WX    TMP DP  RH WIND       PRES   REMARKS
MILWAUKEE      CLOUDY    71  64  78 N13       29.85R
WAUKESHA       CLOUDY    66  63  88 N14       29.88R
MILWAUKEE/TIMM CLOUDY    68  63  83 N13G18    29.87R
RACINE         LGT RAIN  69  66  90 NE6       29.86R FOG
BURLINGTON     PTSUNNY   67  64  88 N10       29.86S
KENOSHA        CLOUDY    70  66  87 NE10      29.85R
FOND DU LAC    CLOUDY    69  63  81 N13       29.92R
SHEBOYGAN      CLOUDY    69  65  86 N10       29.88R
WEST BEND      LGT RAIN  66  64  94 N13G18    29.89R
JUNEAU         CLOUDY    68  64  86 N14G20    29.92S
$$

LSZ147-162-211600-
LAKE SUPERIOR

STATION/POSITION TIME  TEMP    WIND        PRES    WAVE
                       AIR SEA DIR/SP/G            HT/PER
                 (UTC) (F)     (DEG/KT/KT) (MB)    (FT/S)
W MID LAKE BUOY  1450   60 64  350/ 10/ 12 1017.2R   2/ 5
DEVILS ISLAND    1500   62      30/  5/  5 1018.5R
SAXON HARBOR     1430   63      10/  9/ 11 1017.6R
$$

LMZ867-665-643>646-211600-
LAKE MICHIGAN

STATION/POSITION TIME  TEMP    WIND        PRES    WAVE
                       AIR SEA DIR/SP/G            HT/PER
                 (UTC) (F)     (DEG/KT/KT) (MB)    (FT/S)
CHAMBERS ISLAND  1440   67     350/ 14/ 19 1012.5S
N MID LAKE BUOY  1500   67 73  350/ 19/ 25 1010.7
NORTHPORT PIER   1440   66     350/ 11/ 14 1012.5S
KEWAUNEE LAKESHO 1454   67     340/ 10/ 15 1011.0R
SHEBOYGAN LAKESH 1500   68     330/ 13/ 15 1011.0R
PORT WASHINGTON  1440   70     360/  7/ 13 1012.2R
ATWATER BUOY     1437   71 74   10/ 19/ 27 1010.8R   6/ 6
MILWAUKEE LAKESH 1500   70     350/ 13/ 16   N/A
S MID LAKE BUOY  1450   69 75   30/ 21/ 25 1008.3R   4/ 5
KENOSHA   LAKESH 1500   71      30/ 23/ 28 1009.8
$$

TC  - TEMPERATURE IN CELSIUS
VSB - VISIBILITY IN STATUTE MILES
WCI - WIND CHILL INDEX
HX  - HEAT INDEX




USA.gov is the U.S. government's official web portal to all federal, state and local government web resources and services.